owner,sensor,date,latitude,longitude,vertical_datum,wind_speed,wind_to_direction,wind_speed_of_gust,qcFlag 
FIT,ioos:station:wmo:SIPF1:1,2017-05-01T00:00:00Z,27.8620,-80.4450,1.0,6.5,146.0,99.0,'11111222,11111222,11144222' 
FIT,ioos:station:wmo:SIPF1:1,2017-05-01T00:15:00Z,27.8620,-80.4450,1.0,6.3,145.0,99.0,'11111222,11111222,11144222' 
FIT,ioos:station:wmo:SIPF1:1,2017-05-01T00:30:00Z,27.8620,-80.4450,1.0,6.0,139.0,99.0,'11111222,11111222,11144222' 
FIT,ioos:station:wmo:SIPF1:1,2017-05-01T00:45:00Z,27.8620,-80.4450,1.0,5.6,133.0,99.0,'11111222,11111222,11144222' 
FIT,ioos:station:wmo:SIPF1:1,2017-05-01T01:00:00Z,27.8620,-80.4450,1.0,5.5,129.0,99.0,'11111222,11111222,11144222' 
FIT,ioos:station:wmo:SIPF1:1,2017-05-01T01:15:00Z,27.8620,-80.4450,1.0,5.2,131.0,99.0,'11111222,11111222,11144222' 
FIT,ioos:station:wmo:SIPF1:1,2017-05-01T01:30:00Z,27.8620,-80.4450,1.0,5.4,133.0,99.0,'11111222,11111222,11144222' 
FIT,ioos:station:wmo:SIPF1:1,2017-05-01T01:45:00Z,27.8620,-80.4450,1.0,5.7,116.0,99.0,'11111222,11111222,11144222' 
FIT,ioos:station:wmo:SIPF1:1,2017-05-01T02:00:00Z,27.8620,-80.4450,1.0,5.9,121.0,99.0,'11111222,11111222,11144222' 
FIT,ioos:station:wmo:SIPF1:1,2017-05-01T02:15:00Z,27.8620,-80.4450,1.0,6.2,104.0,99.0,'11111222,11111222,11144222' 
FIT,ioos:station:wmo:SIPF1:1,2017-05-01T02:30:00Z,27.8620,-80.4450,1.0,5.5,97.0,99.0,'11111222,11111222,11144222' 
FIT,ioos:station:wmo:SIPF1:1,2017-05-01T02:45:00Z,27.8620,-80.4450,1.0,4.8,112.0,99.0,'11111222,11111222,11144222' 
FIT,ioos:station:wmo:SIPF1:1,2017-05-01T03:00:00Z,27.8620,-80.4450,1.0,5.4,128.0,99.0,'11111222,11111222,11144222' 
FIT,ioos:station:wmo:SIPF1:1,2017-05-01T03:15:00Z,27.8620,-80.4450,1.0,6.8,133.0,99.0,'11111222,11111222,11144222' 
FIT,ioos:station:wmo:SIPF1:1,2017-05-01T03:30:00Z,27.8620,-80.4450,1.0,6.1,131.0,99.0,'11111222,11111222,11144222' 
FIT,ioos:station:wmo:SIPF1:1,2017-05-01T03:45:00Z,27.8620,-80.4450,1.0,7.0,129.0,99.0,'11111222,11111222,11144222' 
FIT,ioos:station:wmo:SIPF1:1,2017-05-01T04:00:00Z,27.8620,-80.4450,1.0,6.8,133.0,99.0,'11111222,11111222,11144222' 
FIT,ioos:station:wmo:SIPF1:1,2017-05-01T04:15:00Z,27.8620,-80.4450,1.0,8.5,146.0,99.0,'11111222,11111222,11144222' 
FIT,ioos:station:wmo:SIPF1:1,2017-05-01T04:30:00Z,27.8620,-80.4450,1.0,9.3,150.0,99.0,'11111222,11111222,11144222' 
FIT,ioos:station:wmo:SIPF1:1,2017-05-01T04:45:00Z,27.8620,-80.4450,1.0,10.0,149.0,99.0,'11111222,11111222,11144222' 
FIT,ioos:station:wmo:SIPF1:1,2017-05-01T05:00:00Z,27.8620,-80.4450,1.0,10.4,151.0,99.0,'11111222,11111222,11144222' 
FIT,ioos:station:wmo:SIPF1:1,2017-05-01T05:15:00Z,27.8620,-80.4450,1.0,10.4,151.0,99.0,'11111222,11111222,11144222' 
FIT,ioos:station:wmo:SIPF1:1,2017-05-01T05:30:00Z,27.8620,-80.4450,1.0,10.9,154.0,99.0,'11111222,11111222,11144222' 
FIT,ioos:station:wmo:SIPF1:1,2017-05-01T05:45:00Z,27.8620,-80.4450,1.0,10.2,149.0,99.0,'11111222,11111222,11144222' 
FIT,ioos:station:wmo:SIPF1:1,2017-05-01T06:00:00Z,27.8620,-80.4450,1.0,10.0,152.0,99.0,'11111222,11111222,11144222' 
FIT,ioos:station:wmo:SIPF1:1,2017-05-01T06:15:00Z,27.8620,-80.4450,1.0,9.9,151.0,99.0,'11111222,11111222,11144222' 
FIT,ioos:station:wmo:SIPF1:1,2017-05-01T06:30:00Z,27.8620,-80.4450,1.0,9.2,152.0,99.0,'11111222,11111222,11144222' 
FIT,ioos:station:wmo:SIPF1:1,2017-05-01T06:45:00Z,27.8620,-80.4450,1.0,8.9,154.0,99.0,'11111222,11111222,11144222' 
FIT,ioos:station:wmo:SIPF1:1,2017-05-01T07:00:00Z,27.8620,-80.4450,1.0,8.7,152.0,99.0,'11111222,11111222,11144222' 
FIT,ioos:station:wmo:SIPF1:1,2017-05-01T07:15:00Z,27.8620,-80.4450,1.0,9.2,154.0,99.0,'11111222,11111222,11144222' 
FIT,ioos:station:wmo:SIPF1:1,2017-05-01T07:30:00Z,27.8620,-80.4450,1.0,9.1,155.0,99.0,'11111222,11111222,11144222' 
FIT,ioos:station:wmo:SIPF1:1,2017-05-01T07:45:00Z,27.8620,-80.4450,1.0,8.9,155.0,99.0,'11111222,11111222,11144222' 
FIT,ioos:station:wmo:SIPF1:1,2017-05-01T08:00:00Z,27.8620,-80.4450,1.0,8.9,155.0,99.0,'11111222,11111222,11144222' 
FIT,ioos:station:wmo:SIPF1:1,2017-05-01T08:15:00Z,27.8620,-80.4450,1.0,9.1,152.0,99.0,'11111222,11111222,11144222' 
FIT,ioos:station:wmo:SIPF1:1,2017-05-01T08:30:00Z,27.8620,-80.4450,1.0,8.9,154.0,99.0,'11111222,11111222,11144222' 
FIT,ioos:station:wmo:SIPF1:1,2017-05-01T08:45:00Z,27.8620,-80.4450,1.0,8.4,152.0,99.0,'11111222,11111222,11144222' 
FIT,ioos:station:wmo:SIPF1:1,2017-05-01T09:00:00Z,27.8620,-80.4450,1.0,8.9,148.0,99.0,'11111222,11111222,11144222' 
FIT,ioos:station:wmo:SIPF1:1,2017-05-01T09:15:00Z,27.8620,-80.4450,1.0,9.1,152.0,99.0,'11111222,11111222,11144222' 
FIT,ioos:station:wmo:SIPF1:1,2017-05-01T09:30:00Z,27.8620,-80.4450,1.0,9.3,150.0,99.0,'11111222,11111222,11144222' 
FIT,ioos:station:wmo:SIPF1:1,2017-05-01T09:45:00Z,27.8620,-80.4450,1.0,8.7,149.0,99.0,'11111222,11111222,11144222' 
FIT,ioos:station:wmo:SIPF1:1,2017-05-01T10:00:00Z,27.8620,-80.4450,1.0,9.3,146.0,99.0,'11111222,11111222,11144222' 
FIT,ioos:station:wmo:SIPF1:1,2017-05-01T10:15:00Z,27.8620,-80.4450,1.0,9.4,143.0,99.0,'11111222,11111222,11144222' 
FIT,ioos:station:wmo:SIPF1:1,2017-05-01T10:30:00Z,27.8620,-80.4450,1.0,9.6,145.0,99.0,'11111222,11111222,11144222' 
FIT,ioos:station:wmo:SIPF1:1,2017-05-01T10:45:00Z,27.8620,-80.4450,1.0,9.3,142.0,99.0,'11111222,11111222,11144222' 
FIT,ioos:station:wmo:SIPF1:1,2017-05-01T11:00:00Z,27.8620,-80.4450,1.0,9.1,143.0,99.0,'11111222,11111222,11144222' 
FIT,ioos:station:wmo:SIPF1:1,2017-05-01T11:15:00Z,27.8620,-80.4450,1.0,9.0,145.0,99.0,'11111222,11111222,11144222' 
FIT,ioos:station:wmo:SIPF1:1,2017-05-01T11:30:00Z,27.8620,-80.4450,1.0,8.8,145.0,99.0,'11111222,11111222,11144222' 
FIT,ioos:station:wmo:SIPF1:1,2017-05-01T11:45:00Z,27.8620,-80.4450,1.0,8.8,149.0,99.0,'11111222,11111222,11144222' 
FIT,ioos:station:wmo:SIPF1:1,2017-05-01T12:00:00Z,27.8620,-80.4450,1.0,8.2,147.0,99.0,'11111222,11111222,11144222' 
FIT,ioos:station:wmo:SIPF1:1,2017-05-01T12:15:00Z,27.8620,-80.4450,1.0,7.9,148.0,99.0,'11111222,11111222,11144222' 
FIT,ioos:station:wmo:SIPF1:1,2017-05-01T12:30:00Z,27.8620,-80.4450,1.0,7.5,151.0,99.0,'11111222,11111222,11144222' 
FIT,ioos:station:wmo:SIPF1:1,2017-05-01T12:45:00Z,27.8620,-80.4450,1.0,7.9,145.0,99.0,'11111222,11111222,11144222' 
FIT,ioos:station:wmo:SIPF1:1,2017-05-01T13:00:00Z,27.8620,-80.4450,1.0,8.2,145.0,99.0,'11111222,11111222,11144222' 
FIT,ioos:station:wmo:SIPF1:1,2017-05-01T13:15:00Z,27.8620,-80.4450,1.0,8.1,144.0,99.0,'11111222,11111222,11144222' 
FIT,ioos:station:wmo:SIPF1:1,2017-05-01T13:45:00Z,27.8620,-80.4450,1.0,6.3,175.0,99.0,'11111222,11111222,11144222' 
FIT,ioos:station:wmo:SIPF1:1,2017-05-01T14:00:00Z,27.8620,-80.4450,1.0,6.9,149.0,99.0,'11111222,11111222,11144222' 
FIT,ioos:station:wmo:SIPF1:1,2017-05-01T14:15:00Z,27.8620,-80.4450,1.0,8.1,144.0,99.0,'11111222,11111222,11144222' 
FIT,ioos:station:wmo:SIPF1:1,2017-05-01T14:30:00Z,27.8620,-80.4450,1.0,8.8,150.0,99.0,'11111222,11111222,11144222' 
FIT,ioos:station:wmo:SIPF1:1,2017-05-01T14:45:00Z,27.8620,-80.4450,1.0,9.1,151.0,99.0,'11111222,11111222,11144222' 
FIT,ioos:station:wmo:SIPF1:1,2017-05-01T15:00:00Z,27.8620,-80.4450,1.0,8.4,151.0,99.0,'11111222,11111222,11144222' 
FIT,ioos:station:wmo:SIPF1:1,2017-05-01T15:15:00Z,27.8620,-80.4450,1.0,8.7,151.0,99.0,'11111222,11111222,11144222' 
FIT,ioos:station:wmo:SIPF1:1,2017-05-01T15:30:00Z,27.8620,-80.4450,1.0,8.7,148.0,99.0,'11111222,11111222,11144222' 
FIT,ioos:station:wmo:SIPF1:1,2017-05-01T15:45:00Z,27.8620,-80.4450,1.0,8.4,146.0,99.0,'11111222,11111222,11144222' 
FIT,ioos:station:wmo:SIPF1:1,2017-05-01T16:00:00Z,27.8620,-80.4450,1.0,8.2,146.0,99.0,'11111222,11111222,11144222' 
FIT,ioos:station:wmo:SIPF1:1,2017-05-01T16:15:00Z,27.8620,-80.4450,1.0,6.8,149.0,99.0,'11111222,11111222,11144222' 
FIT,ioos:station:wmo:SIPF1:1,2017-05-01T16:30:00Z,27.8620,-80.4450,1.0,7.7,142.0,99.0,'11111222,11111222,11144222' 
FIT,ioos:station:wmo:SIPF1:1,2017-05-01T16:45:00Z,27.8620,-80.4450,1.0,8.3,143.0,99.0,'11111222,11111222,11144222' 
FIT,ioos:station:wmo:SIPF1:1,2017-05-01T17:00:00Z,27.8620,-80.4450,1.0,8.6,143.0,99.0,'11111222,11111222,11144222' 
FIT,ioos:station:wmo:SIPF1:1,2017-05-01T17:15:00Z,27.8620,-80.4450,1.0,8.4,141.0,99.0,'11111222,11111222,11144222' 
FIT,ioos:station:wmo:SIPF1:1,2017-05-01T17:30:00Z,27.8620,-80.4450,1.0,8.1,142.0,99.0,'11111222,11111222,11144222' 
FIT,ioos:station:wmo:SIPF1:1,2017-05-01T17:45:00Z,27.8620,-80.4450,1.0,8.5,145.0,99.0,'11111222,11111222,11144222' 
FIT,ioos:station:wmo:SIPF1:1,2017-05-01T18:00:00Z,27.8620,-80.4450,1.0,8.4,145.0,99.0,'11111222,11111222,11144222' 
FIT,ioos:station:wmo:SIPF1:1,2017-05-01T18:15:00Z,27.8620,-80.4450,1.0,9.2,146.0,99.0,'11111222,11111222,11144222' 
FIT,ioos:station:wmo:SIPF1:1,2017-05-01T18:30:00Z,27.8620,-80.4450,1.0,8.9,146.0,99.0,'11111222,11111222,11144222' 
FIT,ioos:station:wmo:SIPF1:1,2017-05-01T18:45:00Z,27.8620,-80.4450,1.0,10.2,148.0,99.0,'11111222,11111222,11144222' 
FIT,ioos:station:wmo:SIPF1:1,2017-05-01T19:00:00Z,27.8620,-80.4450,1.0,10.1,145.0,99.0,'11111222,11111222,11144222' 
FIT,ioos:station:wmo:SIPF1:1,2017-05-01T19:15:00Z,27.8620,-80.4450,1.0,10.2,140.0,99.0,'11111222,11111222,11144222' 
FIT,ioos:station:wmo:SIPF1:1,2017-05-01T19:30:00Z,27.8620,-80.4450,1.0,10.6,144.0,99.0,'11111222,11111222,11144222' 
FIT,ioos:station:wmo:SIPF1:1,2017-05-01T19:45:00Z,27.8620,-80.4450,1.0,10.8,144.0,99.0,'11111222,11111222,11144222' 
FIT,ioos:station:wmo:SIPF1:1,2017-05-01T20:00:00Z,27.8620,-80.4450,1.0,10.4,146.0,99.0,'11111222,11111222,11144222' 
FIT,ioos:station:wmo:SIPF1:1,2017-05-01T20:15:00Z,27.8620,-80.4450,1.0,10.8,145.0,99.0,'11111222,11111222,11144222' 
FIT,ioos:station:wmo:SIPF1:1,2017-05-01T20:30:00Z,27.8620,-80.4450,1.0,11.0,146.0,99.0,'11111222,11111222,11144222' 
FIT,ioos:station:wmo:SIPF1:1,2017-05-01T20:45:00Z,27.8620,-80.4450,1.0,11.2,148.0,99.0,'11111222,11111222,11144222' 
FIT,ioos:station:wmo:SIPF1:1,2017-05-01T21:00:00Z,27.8620,-80.4450,1.0,11.7,150.0,99.0,'11111222,11111222,11144222' 
FIT,ioos:station:wmo:SIPF1:1,2017-05-01T21:15:00Z,27.8620,-80.4450,1.0,11.8,149.0,99.0,'11111222,11111222,11144222' 
FIT,ioos:station:wmo:SIPF1:1,2017-05-01T21:30:00Z,27.8620,-80.4450,1.0,11.3,151.0,99.0,'11111222,11111222,11144222' 
FIT,ioos:station:wmo:SIPF1:1,2017-05-01T21:45:00Z,27.8620,-80.4450,1.0,10.9,157.0,99.0,'11111222,11111222,11144222' 
FIT,ioos:station:wmo:SIPF1:1,2017-05-01T22:00:00Z,27.8620,-80.4450,1.0,12.1,173.0,99.0,'11111222,11111222,11144222' 
FIT,ioos:station:wmo:SIPF1:1,2017-05-01T22:15:00Z,27.8620,-80.4450,1.0,7.8,215.0,99.0,'11111222,11111222,11144222' 
FIT,ioos:station:wmo:SIPF1:1,2017-05-01T22:30:00Z,27.8620,-80.4450,1.0,4.0,197.0,99.0,'11111222,11111222,11144222' 
FIT,ioos:station:wmo:SIPF1:1,2017-05-01T22:45:00Z,27.8620,-80.4450,1.0,3.7,230.0,99.0,'11111222,11111222,11144222' 
FIT,ioos:station:wmo:SIPF1:1,2017-05-01T23:00:00Z,27.8620,-80.4450,1.0,3.1,180.0,99.0,'11111222,11111222,11144222' 
FIT,ioos:station:wmo:SIPF1:1,2017-05-01T23:15:00Z,27.8620,-80.4450,1.0,4.6,159.0,99.0,'11111222,11111222,11144222' 
FIT,ioos:station:wmo:SIPF1:1,2017-05-01T23:30:00Z,27.8620,-80.4450,1.0,2.8,117.0,99.0,'11111222,11111222,11144222' 
FIT,ioos:station:wmo:SIPF1:1,2017-05-01T23:45:00Z,27.8620,-80.4450,1.0,3.6,128.0,99.0,'11111222,11111222,11144222' 
FIT,ioos:station:wmo:SIPF1:1,2017-05-02T00:00:00Z,27.8620,-80.4450,1.0,6.2,155.0,99.0,'11111222,11111222,11144222' 
FIT,ioos:station:wmo:SIPF1:1,2017-05-02T00:15:00Z,27.8620,-80.4450,1.0,7.3,156.0,99.0,'11111222,11111222,11144222' 
FIT,ioos:station:wmo:SIPF1:1,2017-05-02T00:30:00Z,27.8620,-80.4450,1.0,6.0,176.0,99.0,'11111222,11111222,11144222' 
FIT,ioos:station:wmo:SIPF1:1,2017-05-02T00:45:00Z,27.8620,-80.4450,1.0,7.1,165.0,99.0,'11111222,11111222,11144222' 
FIT,ioos:station:wmo:SIPF1:1,2017-05-02T01:00:00Z,27.8620,-80.4450,1.0,7.6,165.0,99.0,'11111222,11111222,11144222' 
FIT,ioos:station:wmo:SIPF1:1,2017-05-02T01:15:00Z,27.8620,-80.4450,1.0,6.8,173.0,99.0,'11111222,11111222,11144222' 
FIT,ioos:station:wmo:SIPF1:1,2017-05-02T01:30:00Z,27.8620,-80.4450,1.0,5.9,168.0,99.0,'11111222,11111222,11144222' 
FIT,ioos:station:wmo:SIPF1:1,2017-05-02T01:45:00Z,27.8620,-80.4450,1.0,6.5,178.0,99.0,'11111222,11111222,11144222' 
FIT,ioos:station:wmo:SIPF1:1,2017-05-02T02:00:00Z,27.8620,-80.4450,1.0,7.1,170.0,99.0,'11111222,11111222,11144222' 
FIT,ioos:station:wmo:SIPF1:1,2017-05-02T02:15:00Z,27.8620,-80.4450,1.0,8.3,167.0,99.0,'11111222,11111222,11144222' 
FIT,ioos:station:wmo:SIPF1:1,2017-05-02T02:30:00Z,27.8620,-80.4450,1.0,9.0,171.0,99.0,'11111222,11111222,11144222' 
FIT,ioos:station:wmo:SIPF1:1,2017-05-02T02:45:00Z,27.8620,-80.4450,1.0,8.6,169.0,99.0,'11111222,11111222,11144222' 
FIT,ioos:station:wmo:SIPF1:1,2017-05-02T03:00:00Z,27.8620,-80.4450,1.0,7.8,171.0,99.0,'11111222,11111222,11144222' 
FIT,ioos:station:wmo:SIPF1:1,2017-05-02T03:15:00Z,27.8620,-80.4450,1.0,5.2,185.0,99.0,'11111222,11111222,11144222' 
FIT,ioos:station:wmo:SIPF1:1,2017-05-02T03:30:00Z,27.8620,-80.4450,1.0,5.4,184.0,99.0,'11111222,11111222,11144222' 
FIT,ioos:station:wmo:SIPF1:1,2017-05-02T03:45:00Z,27.8620,-80.4450,1.0,6.3,175.0,99.0,'11111222,11111222,11144222' 
FIT,ioos:station:wmo:SIPF1:1,2017-05-02T04:00:00Z,27.8620,-80.4450,1.0,5.3,171.0,99.0,'11111222,11111222,11144222' 
FIT,ioos:station:wmo:SIPF1:1,2017-05-02T04:15:00Z,27.8620,-80.4450,1.0,4.3,187.0,99.0,'11111222,11111222,11144222' 
FIT,ioos:station:wmo:SIPF1:1,2017-05-02T04:30:00Z,27.8620,-80.4450,1.0,4.3,188.0,99.0,'11111222,11111222,11144222' 
FIT,ioos:station:wmo:SIPF1:1,2017-05-02T04:45:00Z,27.8620,-80.4450,1.0,4.9,193.0,99.0,'11111222,11111222,11144222' 
FIT,ioos:station:wmo:SIPF1:1,2017-05-02T05:00:00Z,27.8620,-80.4450,1.0,4.8,197.0,99.0,'11111222,11111222,11144222' 
FIT,ioos:station:wmo:SIPF1:1,2017-05-02T05:15:00Z,27.8620,-80.4450,1.0,4.4,197.0,99.0,'11111222,11111222,11144222' 
FIT,ioos:station:wmo:SIPF1:1,2017-05-02T05:30:00Z,27.8620,-80.4450,1.0,4.6,197.0,99.0,'11111222,11111222,11144222' 
FIT,ioos:station:wmo:SIPF1:1,2017-05-02T05:45:00Z,27.8620,-80.4450,1.0,4.6,196.0,99.0,'11111222,11111222,11144222' 
FIT,ioos:station:wmo:SIPF1:1,2017-05-02T06:00:00Z,27.8620,-80.4450,1.0,4.1,201.0,99.0,'11111222,11111222,11144222' 
FIT,ioos:station:wmo:SIPF1:1,2017-05-02T06:15:00Z,27.8620,-80.4450,1.0,3.7,206.0,99.0,'11111222,11111222,11144222' 
FIT,ioos:station:wmo:SIPF1:1,2017-05-02T06:30:00Z,27.8620,-80.4450,1.0,3.7,207.0,99.0,'11111222,11111222,11144222' 
FIT,ioos:station:wmo:SIPF1:1,2017-05-02T06:45:00Z,27.8620,-80.4450,1.0,4.1,202.0,99.0,'11111222,11111222,11144222' 
FIT,ioos:station:wmo:SIPF1:1,2017-05-02T07:00:00Z,27.8620,-80.4450,1.0,3.8,194.0,99.0,'11111222,11111222,11144222' 
FIT,ioos:station:wmo:SIPF1:1,2017-05-02T07:15:00Z,27.8620,-80.4450,1.0,4.1,190.0,99.0,'11111222,11111222,11144222' 
FIT,ioos:station:wmo:SIPF1:1,2017-05-02T07:30:00Z,27.8620,-80.4450,1.0,3.9,193.0,99.0,'11111222,11111222,11144222' 
FIT,ioos:station:wmo:SIPF1:1,2017-05-02T07:45:00Z,27.8620,-80.4450,1.0,4.0,188.0,99.0,'11111222,11111222,11144222' 
FIT,ioos:station:wmo:SIPF1:1,2017-05-02T08:00:00Z,27.8620,-80.4450,1.0,4.0,195.0,99.0,'11111222,11111222,11144222' 
FIT,ioos:station:wmo:SIPF1:1,2017-05-02T08:15:00Z,27.8620,-80.4450,1.0,3.8,202.0,99.0,'11111222,11111222,11144222' 
FIT,ioos:station:wmo:SIPF1:1,2017-05-02T08:30:00Z,27.8620,-80.4450,1.0,3.0,208.0,99.0,'11111222,11111222,11144222' 
FIT,ioos:station:wmo:SIPF1:1,2017-05-02T08:45:00Z,27.8620,-80.4450,1.0,2.7,235.0,99.0,'11111222,11111222,11144222' 
FIT,ioos:station:wmo:SIPF1:1,2017-05-02T09:00:00Z,27.8620,-80.4450,1.0,2.2,230.0,99.0,'11111222,11111222,11144222' 
FIT,ioos:station:wmo:SIPF1:1,2017-05-02T09:15:00Z,27.8620,-80.4450,1.0,2.9,224.0,99.0,'11111222,11111222,11144222' 
FIT,ioos:station:wmo:SIPF1:1,2017-05-02T09:30:00Z,27.8620,-80.4450,1.0,2.9,206.0,99.0,'11111222,11111222,11144222' 
FIT,ioos:station:wmo:SIPF1:1,2017-05-02T09:45:00Z,27.8620,-80.4450,1.0,3.3,200.0,99.0,'11111222,11111222,11144222' 
FIT,ioos:station:wmo:SIPF1:1,2017-05-02T10:00:00Z,27.8620,-80.4450,1.0,3.2,218.0,99.0,'11111222,11111222,11144222' 
FIT,ioos:station:wmo:SIPF1:1,2017-05-02T10:15:00Z,27.8620,-80.4450,1.0,3.2,216.0,99.0,'11111222,11111222,11144222' 
FIT,ioos:station:wmo:SIPF1:1,2017-05-02T10:30:00Z,27.8620,-80.4450,1.0,3.2,211.0,99.0,'11111222,11111222,11144222' 
FIT,ioos:station:wmo:SIPF1:1,2017-05-02T10:45:00Z,27.8620,-80.4450,1.0,3.7,205.0,99.0,'11111222,11111222,11144222' 
FIT,ioos:station:wmo:SIPF1:1,2017-05-02T11:00:00Z,27.8620,-80.4450,1.0,3.1,211.0,99.0,'11111222,11111222,11144222' 
FIT,ioos:station:wmo:SIPF1:1,2017-05-02T11:15:00Z,27.8620,-80.4450,1.0,3.3,210.0,99.0,'11111222,11111222,11144222' 
FIT,ioos:station:wmo:SIPF1:1,2017-05-02T11:30:00Z,27.8620,-80.4450,1.0,2.8,204.0,99.0,'11111222,11111222,11144222' 
FIT,ioos:station:wmo:SIPF1:1,2017-05-02T11:45:00Z,27.8620,-80.4450,1.0,2.6,213.0,99.0,'11111222,11111222,11144222' 
FIT,ioos:station:wmo:SIPF1:1,2017-05-02T12:00:00Z,27.8620,-80.4450,1.0,2.5,224.0,99.0,'11111222,11111222,11144222' 
FIT,ioos:station:wmo:SIPF1:1,2017-05-02T12:15:00Z,27.8620,-80.4450,1.0,2.6,234.0,99.0,'11111222,11111222,11144222' 
FIT,ioos:station:wmo:SIPF1:1,2017-05-02T12:30:00Z,27.8620,-80.4450,1.0,2.6,236.0,99.0,'11111222,11111222,11144222' 
FIT,ioos:station:wmo:SIPF1:1,2017-05-02T12:45:00Z,27.8620,-80.4450,1.0,2.0,224.0,99.0,'11111222,11111222,11144222' 
FIT,ioos:station:wmo:SIPF1:1,2017-05-02T13:00:00Z,27.8620,-80.4450,1.0,1.9,227.0,99.0,'11111222,11111222,11144222' 
FIT,ioos:station:wmo:SIPF1:1,2017-05-02T13:15:00Z,27.8620,-80.4450,1.0,2.8,222.0,99.0,'11111222,11111222,11144222' 
FIT,ioos:station:wmo:SIPF1:1,2017-05-02T13:30:00Z,27.8620,-80.4450,1.0,3.7,234.0,99.0,'11111222,11111222,11144222' 
FIT,ioos:station:wmo:SIPF1:1,2017-05-02T13:45:00Z,27.8620,-80.4450,1.0,4.8,227.0,99.0,'11111222,11111222,11144222' 
FIT,ioos:station:wmo:SIPF1:1,2017-05-02T14:00:00Z,27.8620,-80.4450,1.0,5.8,223.0,99.0,'11111222,11111222,11144222' 
FIT,ioos:station:wmo:SIPF1:1,2017-05-02T14:15:00Z,27.8620,-80.4450,1.0,5.0,219.0,99.0,'11111222,11111222,11144222' 
FIT,ioos:station:wmo:SIPF1:1,2017-05-02T14:30:00Z,27.8620,-80.4450,1.0,5.8,229.0,99.0,'11111222,11111222,11144222' 
FIT,ioos:station:wmo:SIPF1:1,2017-05-02T14:45:00Z,27.8620,-80.4450,1.0,5.4,213.0,99.0,'11111222,11111222,11144222' 
FIT,ioos:station:wmo:SIPF1:1,2017-05-02T15:00:00Z,27.8620,-80.4450,1.0,4.8,217.0,99.0,'11111222,11111222,11144222' 
FIT,ioos:station:wmo:SIPF1:1,2017-05-02T15:15:00Z,27.8620,-80.4450,1.0,4.9,220.0,99.0,'11111222,11111222,11144222' 
FIT,ioos:station:wmo:SIPF1:1,2017-05-02T15:30:00Z,27.8620,-80.4450,1.0,4.7,228.0,99.0,'11111222,11111222,11144222' 
FIT,ioos:station:wmo:SIPF1:1,2017-05-02T15:45:00Z,27.8620,-80.4450,1.0,5.1,224.0,99.0,'11111222,11111222,11144222' 
FIT,ioos:station:wmo:SIPF1:1,2017-05-02T16:00:00Z,27.8620,-80.4450,1.0,4.8,222.0,99.0,'11111222,11111222,11144222' 
FIT,ioos:station:wmo:SIPF1:1,2017-05-02T16:15:00Z,27.8620,-80.4450,1.0,4.6,220.0,99.0,'11111222,11111222,11144222' 
FIT,ioos:station:wmo:SIPF1:1,2017-05-02T16:30:00Z,27.8620,-80.4450,1.0,4.5,208.0,99.0,'11111222,11111222,11144222' 
FIT,ioos:station:wmo:SIPF1:1,2017-05-02T16:45:00Z,27.8620,-80.4450,1.0,4.2,215.0,99.0,'11111222,11111222,11144222' 
FIT,ioos:station:wmo:SIPF1:1,2017-05-02T17:00:00Z,27.8620,-80.4450,1.0,2.7,142.0,99.0,'11111222,11111222,11144222' 
FIT,ioos:station:wmo:SIPF1:1,2017-05-02T17:15:00Z,27.8620,-80.4450,1.0,4.3,112.0,99.0,'11111222,11111222,11144222' 
FIT,ioos:station:wmo:SIPF1:1,2017-05-02T17:30:00Z,27.8620,-80.4450,1.0,4.3,100.0,99.0,'11111222,11111222,11144222' 
FIT,ioos:station:wmo:SIPF1:1,2017-05-02T17:45:00Z,27.8620,-80.4450,1.0,9.0,28.0,99.0,'11111222,11111222,11144222' 
FIT,ioos:station:wmo:SIPF1:1,2017-05-02T18:00:00Z,27.8620,-80.4450,1.0,10.6,14.0,99.0,'11111222,11111222,11144222' 
FIT,ioos:station:wmo:SIPF1:1,2017-05-02T18:15:00Z,27.8620,-80.4450,1.0,7.9,28.0,99.0,'11111222,11111222,11144222' 
FIT,ioos:station:wmo:SIPF1:1,2017-05-02T18:30:00Z,27.8620,-80.4450,1.0,7.3,56.0,99.0,'11111222,11111222,11144222' 
FIT,ioos:station:wmo:SIPF1:1,2017-05-02T18:45:00Z,27.8620,-80.4450,1.0,6.7,68.0,99.0,'11111222,11111222,11144222' 
FIT,ioos:station:wmo:SIPF1:1,2017-05-02T19:00:00Z,27.8620,-80.4450,1.0,4.9,94.0,99.0,'11111222,11111222,11144222' 
FIT,ioos:station:wmo:SIPF1:1,2017-05-02T19:15:00Z,27.8620,-80.4450,1.0,3.8,78.0,99.0,'11111222,11111222,11144222' 
FIT,ioos:station:wmo:SIPF1:1,2017-05-02T19:30:00Z,27.8620,-80.4450,1.0,3.8,60.0,99.0,'11111222,11111222,11144222' 
FIT,ioos:station:wmo:SIPF1:1,2017-05-02T19:45:00Z,27.8620,-80.4450,1.0,3.0,43.0,99.0,'11111222,11111222,11144222' 
FIT,ioos:station:wmo:SIPF1:1,2017-05-02T20:00:00Z,27.8620,-80.4450,1.0,3.1,57.0,99.0,'11111222,11111222,11144222' 
FIT,ioos:station:wmo:SIPF1:1,2017-05-02T20:15:00Z,27.8620,-80.4450,1.0,2.7,79.0,99.0,'11111222,11111222,11144222' 
FIT,ioos:station:wmo:SIPF1:1,2017-05-02T20:30:00Z,27.8620,-80.4450,1.0,2.9,46.0,99.0,'11111222,11111222,11144222' 
FIT,ioos:station:wmo:SIPF1:1,2017-05-02T20:45:00Z,27.8620,-80.4450,1.0,3.1,26.0,99.0,'11111222,11111222,11144222' 
FIT,ioos:station:wmo:SIPF1:1,2017-05-02T21:00:00Z,27.8620,-80.4450,1.0,3.5,42.0,99.0,'11111222,11111222,11144222' 
FIT,ioos:station:wmo:SIPF1:1,2017-05-02T21:15:00Z,27.8620,-80.4450,1.0,3.3,57.0,99.0,'11111222,11111222,11144222' 
FIT,ioos:station:wmo:SIPF1:1,2017-05-02T21:30:00Z,27.8620,-80.4450,1.0,2.5,101.0,99.0,'11111222,11111222,11144222' 
FIT,ioos:station:wmo:SIPF1:1,2017-05-02T21:45:00Z,27.8620,-80.4450,1.0,2.3,114.0,99.0,'11111222,11111222,11144222' 
FIT,ioos:station:wmo:SIPF1:1,2017-05-02T22:00:00Z,27.8620,-80.4450,1.0,3.4,72.0,99.0,'11111222,11111222,11144222' 
FIT,ioos:station:wmo:SIPF1:1,2017-05-02T22:15:00Z,27.8620,-80.4450,1.0,4.3,71.0,99.0,'11111222,11111222,11144222' 
FIT,ioos:station:wmo:SIPF1:1,2017-05-02T22:30:00Z,27.8620,-80.4450,1.0,3.4,72.0,99.0,'11111222,11111222,11144222' 
FIT,ioos:station:wmo:SIPF1:1,2017-05-02T22:45:00Z,27.8620,-80.4450,1.0,3.8,83.0,99.0,'11111222,11111222,11144222' 
FIT,ioos:station:wmo:SIPF1:1,2017-05-02T23:00:00Z,27.8620,-80.4450,1.0,3.6,103.0,99.0,'11111222,11111222,11144222' 
FIT,ioos:station:wmo:SIPF1:1,2017-05-02T23:15:00Z,27.8620,-80.4450,1.0,4.4,128.0,99.0,'11111222,11111222,11144222' 
FIT,ioos:station:wmo:SIPF1:1,2017-05-02T23:30:00Z,27.8620,-80.4450,1.0,4.8,115.0,99.0,'11111222,11111222,11144222' 
FIT,ioos:station:wmo:SIPF1:1,2017-05-02T23:45:00Z,27.8620,-80.4450,1.0,5.1,115.0,99.0,'11111222,11111222,11144222' 
FIT,ioos:station:wmo:SIPF1:1,2017-05-03T00:00:00Z,27.8620,-80.4450,1.0,5.5,106.0,99.0,'11111222,11111222,11144222' 
FIT,ioos:station:wmo:SIPF1:1,2017-05-03T00:15:00Z,27.8620,-80.4450,1.0,5.6,106.0,99.0,'11111222,11111222,11144222' 
FIT,ioos:station:wmo:SIPF1:1,2017-05-03T00:30:00Z,27.8620,-80.4450,1.0,5.5,113.0,99.0,'11111222,11111222,11144222' 
FIT,ioos:station:wmo:SIPF1:1,2017-05-03T00:45:00Z,27.8620,-80.4450,1.0,5.0,118.0,99.0,'11111222,11111222,11144222' 
FIT,ioos:station:wmo:SIPF1:1,2017-05-03T01:00:00Z,27.8620,-80.4450,1.0,4.4,118.0,99.0,'11111222,11111222,11144222' 
FIT,ioos:station:wmo:SIPF1:1,2017-05-03T01:15:00Z,27.8620,-80.4450,1.0,3.8,118.0,99.0,'11111222,11111222,11144222' 
FIT,ioos:station:wmo:SIPF1:1,2017-05-03T01:30:00Z,27.8620,-80.4450,1.0,3.6,131.0,99.0,'11111222,11111222,11144222' 
FIT,ioos:station:wmo:SIPF1:1,2017-05-03T01:45:00Z,27.8620,-80.4450,1.0,3.6,135.0,99.0,'11111222,11111222,11144222' 
FIT,ioos:station:wmo:SIPF1:1,2017-05-03T02:00:00Z,27.8620,-80.4450,1.0,3.9,139.0,99.0,'11111222,11111222,11144222' 
FIT,ioos:station:wmo:SIPF1:1,2017-05-03T02:15:00Z,27.8620,-80.4450,1.0,3.7,134.0,99.0,'11111222,11111222,11144222' 
FIT,ioos:station:wmo:SIPF1:1,2017-05-03T02:30:00Z,27.8620,-80.4450,1.0,3.3,125.0,99.0,'11111222,11111222,11144222' 
FIT,ioos:station:wmo:SIPF1:1,2017-05-03T02:45:00Z,27.8620,-80.4450,1.0,2.9,112.0,99.0,'11111222,11111222,11144222' 
FIT,ioos:station:wmo:SIPF1:1,2017-05-03T03:00:00Z,27.8620,-80.4450,1.0,2.2,83.0,99.0,'11111222,11111222,11144222' 
FIT,ioos:station:wmo:SIPF1:1,2017-05-03T03:15:00Z,27.8620,-80.4450,1.0,1.7,80.0,99.0,'11111222,11111222,11144222' 